TimeMDT,TemperatureF,Dew PointF,Humidity,Sea Level PressureIn,VisibilityMPH,Wind Direction,Wind SpeedMPH,Gust SpeedMPH,PrecipitationIn,Events,Conditions,WindDirDegrees,DateUTC
12:09 AM,33.8,17.6,52,30.51,10.0,West,38.0,47.2,N/A,,Clear,270,2013-09-30 06:09:00
12:29 AM,33.8,17.6,52,30.51,10.0,West,34.5,40.3,N/A,,Clear,270,2013-09-30 06:29:00
12:49 AM,33.8,17.6,52,30.51,10.0,West,31.1,-,N/A,,Clear,270,2013-09-30 06:49:00
1:09 AM,33.8,17.6,52,30.50,10.0,West,36.8,42.6,N/A,,Clear,270,2013-09-30 07:09:00
1:29 AM,33.8,17.6,52,30.48,10.0,West,41.4,44.9,N/A,,Clear,270,2013-09-30 07:29:00
1:49 AM,35.6,15.8,44,30.48,10.0,West,47.2,54.1,N/A,,Clear,270,2013-09-30 07:49:00
2:09 AM,35.6,14.0,41,30.47,10.0,West,43.7,58.7,N/A,,Clear,270,2013-09-30 08:09:00
2:29 AM,35.6,14.0,41,30.49,10.0,West,40.3,47.2,N/A,,Clear,270,2013-09-30 08:29:00
2:49 AM,35.6,14.0,41,30.49,10.0,West,34.5,46.0,N/A,,Clear,270,2013-09-30 08:49:00
3:09 AM,35.6,14.0,41,30.47,10.0,West,38.0,47.2,N/A,,Clear,280,2013-09-30 09:09:00
3:29 AM,35.6,14.0,41,30.48,10.0,West,35.7,41.4,N/A,,Clear,260,2013-09-30 09:29:00
3:49 AM,35.6,14.0,41,30.47,10.0,West,35.7,42.6,N/A,,Clear,260,2013-09-30 09:49:00
4:09 AM,35.6,15.8,44,30.47,10.0,West,35.7,40.3,N/A,,Clear,260,2013-09-30 10:09:00
4:29 AM,33.8,15.8,48,30.46,10.0,West,34.5,41.4,N/A,,Clear,260,2013-09-30 10:29:00
4:49 AM,33.8,17.6,52,30.46,10.0,West,39.1,46.0,N/A,,Clear,270,2013-09-30 10:49:00
5:09 AM,35.6,17.6,48,30.46,10.0,West,35.7,-,N/A,,Clear,270,2013-09-30 11:09:00
5:29 AM,35.6,17.6,48,30.46,10.0,West,36.8,41.4,N/A,,Clear,270,2013-09-30 11:29:00
5:49 AM,35.6,17.6,48,30.46,10.0,West,36.8,-,N/A,,Clear,270,2013-09-30 11:49:00
6:09 AM,35.6,17.6,48,30.46,10.0,West,35.7,-,N/A,,Clear,260,2013-09-30 12:09:00
6:29 AM,33.8,15.8,48,30.46,10.0,WSW,36.8,-,N/A,,Clear,250,2013-09-30 12:29:00
6:49 AM,32.0,17.6,55,30.46,10.0,WSW,38.0,-,N/A,,Clear,250,2013-09-30 12:49:00
7:09 AM,32.0,17.6,55,30.48,10.0,WSW,35.7,-,N/A,,Clear,250,2013-09-30 13:09:00
7:29 AM,33.8,17.6,52,30.48,10.0,WSW,35.7,-,N/A,,Clear,250,2013-09-30 13:29:00
7:49 AM,33.8,17.6,52,30.48,10.0,West,34.5,-,N/A,,Clear,260,2013-09-30 13:49:00
8:09 AM,33.8,17.6,52,30.48,10.0,West,35.7,-,N/A,,Clear,260,2013-09-30 14:09:00
8:29 AM,35.6,17.6,48,30.48,10.0,West,34.5,-,N/A,,Clear,260,2013-09-30 14:29:00
8:49 AM,35.6,17.6,48,30.48,10.0,WSW,32.2,-,N/A,,Clear,250,2013-09-30 14:49:00
9:09 AM,37.4,17.6,45,30.49,10.0,WSW,31.1,36.8,N/A,,Clear,240,2013-09-30 15:09:00
9:29 AM,37.4,17.6,45,30.49,10.0,WSW,29.9,-,N/A,,Clear,250,2013-09-30 15:29:00
9:49 AM,39.2,17.6,42,30.49,10.0,WSW,33.4,38.0,N/A,,Clear,250,2013-09-30 15:49:00
10:09 AM,41.0,17.6,39,30.50,10.0,West,29.9,39.1,N/A,,Clear,260,2013-09-30 16:09:00
10:26 AM,41.0,17.6,39,30.49,10.0,West,33.4,41.4,N/A,,Clear,260,2013-09-30 16:26:00
10:48 AM,42.8,17.6,36,30.49,10.0,West,33.4,42.6,N/A,,Clear,270,2013-09-30 16:48:00
11:09 AM,42.8,15.8,34,30.49,10.0,West,35.7,42.6,N/A,,Clear,260,2013-09-30 17:09:00
11:16 AM,42.8,15.8,34,30.49,10.0,West,36.8,43.7,N/A,,Clear,260,2013-09-30 17:16:00
12:08 PM,44.6,17.6,34,30.48,10.0,West,38.0,50.6,N/A,,Clear,270,2013-09-30 18:08:00
12:29 PM,46.4,19.4,34,30.49,10.0,WSW,32.2,40.3,N/A,,Clear,250,2013-09-30 18:29:00
12:37 PM,46.4,19.4,34,30.49,10.0,WSW,29.9,42.6,N/A,,Clear,240,2013-09-30 18:37:00
1:08 PM,46.4,21.2,37,30.48,10.0,West,33.4,50.6,N/A,,Clear,260,2013-09-30 19:08:00
1:29 PM,48.2,23.0,37,30.46,10.0,West,36.8,48.3,N/A,,Clear,270,2013-09-30 19:29:00
1:47 PM,50.0,23.0,35,30.47,10.0,West,28.8,42.6,N/A,,Clear,260,2013-09-30 19:47:00
2:09 PM,50.0,26.6,40,30.47,10.0,SW,34.5,46.0,N/A,,Clear,230,2013-09-30 20:09:00
2:29 PM,50.0,26.6,40,30.46,10.0,WSW,33.4,47.2,N/A,,Clear,240,2013-09-30 20:29:00
2:49 PM,51.8,28.4,41,30.45,10.0,SW,35.7,43.7,N/A,,Clear,230,2013-09-30 20:49:00
3:09 PM,50.0,28.4,43,30.46,10.0,WSW,36.8,48.3,N/A,,Clear,250,2013-09-30 21:09:00
3:29 PM,51.8,30.2,44,30.46,10.0,WSW,28.8,41.4,N/A,,Clear,240,2013-09-30 21:29:00
3:49 PM,51.8,28.4,41,30.46,10.0,West,42.6,51.8,N/A,,Clear,270,2013-09-30 21:49:00
4:04 PM,51.8,28.4,41,30.46,10.0,West,39.1,50.6,N/A,,Clear,260,2013-09-30 22:04:00
4:29 PM,51.8,28.4,41,30.46,10.0,West,35.7,48.3,N/A,,Clear,270,2013-09-30 22:29:00
4:49 PM,51.8,28.4,41,30.46,10.0,West,38.0,47.2,N/A,,Clear,270,2013-09-30 22:49:00
5:09 PM,51.8,28.4,41,30.46,10.0,West,32.2,49.5,N/A,,Clear,260,2013-09-30 23:09:00
5:29 PM,50.0,28.4,43,30.47,10.0,West,33.4,40.3,N/A,,Clear,260,2013-09-30 23:29:00
5:49 PM,50.0,28.4,43,30.47,10.0,West,35.7,43.7,N/A,,Clear,260,2013-09-30 23:49:00
6:09 PM,50.0,28.4,43,30.47,10.0,West,33.4,40.3,N/A,,Clear,260,2013-10-01 00:09:00
6:29 PM,46.4,24.8,43,30.47,10.0,West,38.0,42.6,N/A,,Clear,270,2013-10-01 00:29:00
6:49 PM,44.6,23.0,43,30.48,10.0,West,34.5,41.4,N/A,,Clear,260,2013-10-01 00:49:00
7:09 PM,44.6,23.0,43,30.48,10.0,West,31.1,36.8,N/A,,Clear,260,2013-10-01 01:09:00
7:29 PM,42.8,23.0,46,30.48,10.0,West,31.1,38.0,N/A,,Clear,270,2013-10-01 01:29:00
7:49 PM,42.8,21.2,42,30.48,10.0,West,32.2,-,N/A,,Clear,260,2013-10-01 01:49:00
8:09 PM,42.8,21.2,42,30.48,10.0,West,31.1,38.0,N/A,,Clear,260,2013-10-01 02:09:00
8:29 PM,42.8,21.2,42,30.49,10.0,West,29.9,-,N/A,,Clear,260,2013-10-01 02:29:00
8:49 PM,42.8,21.2,42,30.49,10.0,West,28.8,-,N/A,,Clear,270,2013-10-01 02:49:00
9:09 PM,42.8,19.4,39,30.49,10.0,West,34.5,-,N/A,,Clear,270,2013-10-01 03:09:00
9:29 PM,41.0,19.4,42,30.49,10.0,West,26.5,33.4,N/A,,Clear,280,2013-10-01 03:29:00
9:49 PM,41.0,19.4,42,30.50,10.0,West,24.2,32.2,N/A,,Clear,280,2013-10-01 03:49:00
10:09 PM,41.0,19.4,42,30.51,10.0,West,25.3,31.1,N/A,,Clear,270,2013-10-01 04:09:00
10:29 PM,41.0,19.4,42,30.51,10.0,West,24.2,-,N/A,,Clear,270,2013-10-01 04:29:00
10:49 PM,41.0,19.4,42,30.51,10.0,West,18.4,-,N/A,,Clear,270,2013-10-01 04:49:00
11:09 PM,41.0,19.4,42,30.51,10.0,West,25.3,-,N/A,,Clear,270,2013-10-01 05:09:00
11:29 PM,39.2,19.4,45,30.51,10.0,West,20.7,-,N/A,,Clear,270,2013-10-01 05:29:00
11:49 PM,39.2,19.4,45,30.51,10.0,West,25.3,-,N/A,,Clear,260,2013-10-01 05:49:00